TimeCDT,TemperatureF,Dew PointF,Humidity,Sea Level PressureIn,VisibilityMPH,Wind Direction,Wind SpeedMPH,Gust SpeedMPH,PrecipitationIn,Events,Conditions,WindDirDegrees,DateUTC
12:52 AM,69.1,62.1,78,30.05,10.0,SSE,12.7,-,N/A,,Mostly Cloudy,150,2013-05-25 05:52:00
1:52 AM,68.0,62.1,81,30.05,10.0,SSE,13.8,-,N/A,,Partly Cloudy,150,2013-05-25 06:52:00
2:52 AM,66.9,63.0,87,30.06,10.0,SSE,12.7,-,N/A,,Overcast,150,2013-05-25 07:52:00
3:52 AM,68.0,64.0,87,30.04,10.0,SSE,12.7,-,N/A,,Mostly Cloudy,160,2013-05-25 08:52:00
4:17 AM,68.0,64.4,88,30.11,10.0,SE,11.5,-,N/A,,Mostly Cloudy,140,2013-05-25 09:17:00
4:52 AM,68.0,64.0,87,30.03,10.0,SSE,9.2,-,N/A,,Overcast,150,2013-05-25 09:52:00
5:52 AM,66.9,64.0,90,30.04,10.0,SE,9.2,-,N/A,,Overcast,140,2013-05-25 10:52:00
6:52 AM,66.9,64.9,93,30.06,10.0,SE,5.8,-,0.00,,Overcast,140,2013-05-25 11:52:00
7:52 AM,69.1,66.0,90,30.06,10.0,SSE,8.1,-,N/A,,Overcast,150,2013-05-25 12:52:00
8:17 AM,69.8,66.2,88,30.12,10.0,SSE,8.1,-,N/A,,Overcast,150,2013-05-25 13:17:00
8:36 AM,69.8,66.2,88,30.12,10.0,SE,13.8,-,N/A,,Mostly Cloudy,140,2013-05-25 13:36:00
8:52 AM,71.1,66.9,87,30.06,10.0,SE,11.5,-,N/A,,Mostly Cloudy,140,2013-05-25 13:52:00
9:52 AM,75.0,66.9,76,30.06,10.0,SSE,17.3,-,N/A,,Mostly Cloudy,160,2013-05-25 14:52:00
10:26 AM,75.2,66.2,73,30.12,10.0,SSE,19.6,-,N/A,,Mostly Cloudy,160,2013-05-25 15:26:00
10:52 AM,78.1,64.9,64,30.05,10.0,SE,18.4,-,N/A,,Mostly Cloudy,140,2013-05-25 15:52:00
11:13 AM,78.8,64.4,61,30.11,10.0,SE,18.4,24.2,N/A,,Scattered Clouds,140,2013-05-25 16:13:00
11:52 AM,79.0,64.0,60,30.05,10.0,SE,18.4,25.3,N/A,,Overcast,140,2013-05-25 16:52:00
12:52 PM,78.1,64.9,64,30.04,10.0,SE,17.3,-,N/A,,Mostly Cloudy,140,2013-05-25 17:52:00
1:52 PM,82.0,66.9,60,30.01,10.0,SSE,21.9,27.6,N/A,,Partly Cloudy,150,2013-05-25 18:52:00
2:52 PM,82.0,66.0,58,29.99,10.0,SSE,16.1,27.6,N/A,,Mostly Cloudy,150,2013-05-25 19:52:00
3:52 PM,82.9,64.9,54,29.96,10.0,SSE,23.0,28.8,N/A,,Mostly Cloudy,150,2013-05-25 20:52:00
4:52 PM,84.0,64.9,53,29.94,10.0,South,19.6,28.8,N/A,,Scattered Clouds,170,2013-05-25 21:52:00
5:52 PM,82.9,64.0,53,29.93,10.0,SSE,16.1,-,N/A,,Partly Cloudy,160,2013-05-25 22:52:00
6:52 PM,82.9,64.0,53,29.91,10.0,SSE,17.3,25.3,N/A,,Clear,160,2013-05-25 23:52:00
7:52 PM,81.0,64.0,56,29.91,10.0,SSE,17.3,24.2,N/A,,Partly Cloudy,160,2013-05-26 00:52:00
8:52 PM,78.1,64.9,64,29.93,10.0,SSE,15.0,26.5,N/A,,Clear,150,2013-05-26 01:52:00
9:52 PM,75.0,66.9,76,29.95,10.0,SE,15.0,-,N/A,,Clear,140,2013-05-26 02:52:00
10:52 PM,73.9,66.9,79,29.99,10.0,SSE,15.0,-,N/A,,Clear,150,2013-05-26 03:52:00
11:52 PM,73.0,66.9,81,29.98,10.0,SSE,19.6,-,N/A,,Clear,160,2013-05-26 04:52:00